Previsão horária em Evlakh

Hoje, 30 Setembro, Quarta-feira

Tempo Temperatura Precipitação Vento Pressão Humidade
00:00 +17°C° 0 mm 3 m/s 764 mmHg 49%
01:00 +17°C° 0 mm 3 m/s 763 mmHg 51%
02:00 +16°C° 0 mm 2 m/s 763 mmHg 52%
03:00 +16°C° 0 mm 2 m/s 762 mmHg 53%
04:00 +16°C° 0 mm 2 m/s 762 mmHg 54%
05:00 +15°C° 0 mm 1 m/s 762 mmHg 56%
06:00 +15°C° 0 mm 1 m/s 762 mmHg 57%
07:00 +17°C° 0 mm 2 m/s 761 mmHg 54%
08:00 +19°C° 0 mm 2 m/s 761 mmHg 51%
09:00 +20°C° 0 mm 3 m/s 761 mmHg 49%
10:00 +22°C° 0 mm 3 m/s 761 mmHg 46%
11:00 +24°C° 0 mm 3 m/s 760 mmHg 43%
12:00 +25°C° 0 mm 3 m/s 760 mmHg 40%
13:00 +25°C° 0 mm 3 m/s 759 mmHg 40%
14:00 +25°C° 0 mm 4 m/s 759 mmHg 40%
15:00 +25°C° 0 mm 4 m/s 759 mmHg 39%
16:00 +25°C° 0 mm 4 m/s 759 mmHg 42%
17:00 +23°C° 0 mm 4 m/s 759 mmHg 45%
18:00 +22°C° 0 mm 3 m/s 760 mmHg 48%
19:00 +22°C° 0 mm 4 m/s 760 mmHg 49%
20:00 +22°C° 0 mm 5 m/s 760 mmHg 50%
21:00 +21°C° 0 mm 5 m/s 761 mmHg 52%
22:00 +21°C° 0 mm 5 m/s 761 mmHg 53%
23:00 +21°C° 0 mm 4 m/s 761 mmHg 55%

Amanhã, 1 Outubro, Quinta-feira

Tempo Temperatura Precipitação Vento Pressão Humidade
00:00 +20°C° 0 mm 4 m/s 761 mmHg 56%
01:00 +20°C° 0 mm 3 m/s 761 mmHg 57%
02:00 +20°C° 0 mm 3 m/s 761 mmHg 58%
03:00 +19°C° 0 mm 3 m/s 761 mmHg 58%
04:00 +19°C° 0 mm 2 m/s 761 mmHg 58%
05:00 +19°C° 0 mm 2 m/s 761 mmHg 58%
06:00 +19°C° 0 mm 2 m/s 762 mmHg 59%
07:00 +20°C° 0 mm 3 m/s 762 mmHg 56%
08:00 +20°C° 0 mm 3 m/s 762 mmHg 52%
09:00 +21°C° 0 mm 4 m/s 762 mmHg 49%
10:00 +22°C° 0 mm 4 m/s 762 mmHg 46%
11:00 +25°C° 0 mm 4 m/s 761 mmHg 42%
12:00 +26°C° 0 mm 4 m/s 761 mmHg 38%
13:00 +26°C° 0 mm 4 m/s 761 mmHg 37%
14:00 +27°C° 0 mm 4 m/s 760 mmHg 36%
15:00 +27°C° 0 mm 4 m/s 760 mmHg 34%
16:00 +26°C° 0 mm 3 m/s 760 mmHg 37%
17:00 +25°C° 0 mm 3 m/s 760 mmHg 39%
18:00 +24°C° 0 mm 3 m/s 760 mmHg 41%
19:00 +22°C° 0 mm 3 m/s 761 mmHg 43%
20:00 +21°C° 0 mm 4 m/s 761 mmHg 46%
21:00 +20°C° 0 mm 5 m/s 761 mmHg 48%
22:00 +20°C° 0 mm 4 m/s 761 mmHg 50%
23:00 +19°C° 0 mm 3 m/s 761 mmHg 51%

Depois de amanhã, 2 Outubro, Sexta-feira

Tempo Temperatura Precipitação Vento Pressão Humidade
00:00 +18°C° 0 mm 2 m/s 761 mmHg 53%
01:00 +18°C° 0 mm 2 m/s 761 mmHg 54%
02:00 +19°C° 0 mm 1 m/s 761 mmHg 54%
03:00 +18°C° 0 mm 1 m/s 761 mmHg 55%
04:00 +18°C° 0 mm 1 m/s 761 mmHg 56%
05:00 +18°C° 0 mm 1 m/s 761 mmHg 58%
06:00 +15°C° 0 mm 0 m/s 761 mmHg 59%
07:00 +19°C° 0 mm 1 m/s 761 mmHg 54%
08:00 +21°C° 0 mm 1 m/s 761 mmHg 49%
09:00 +23°C° 0 mm 1 m/s 761 mmHg 44%
10:00 +24°C° 0 mm 1 m/s 760 mmHg 42%
11:00 +25°C° 0 mm 1 m/s 760 mmHg 40%
12:00 +27°C° 0 mm 2 m/s 759 mmHg 38%
13:00 +27°C° 0 mm 2 m/s 759 mmHg 37%
14:00 +28°C° 0 mm 2 m/s 759 mmHg 36%
15:00 +28°C° 0 mm 2 m/s 758 mmHg 35%
16:00 +27°C° 0.1 mm 2 m/s 759 mmHg 40%
17:00 +26°C° 0.1 mm 2 m/s 759 mmHg 44%
18:00 +24°C° 0.1 mm 2 m/s 759 mmHg 49%
19:00 +24°C° 0.1 mm 3 m/s 760 mmHg 53%
20:00 +22°C° 0.1 mm 3 m/s 760 mmHg 57%
21:00 +21°C° 0.1 mm 4 m/s 761 mmHg 60%
22:00 +20°C° 0.1 mm 3 m/s 761 mmHg 63%
23:00 +19°C° 0.1 mm 2 m/s 761 mmHg 66%

3 Outubro, Sábado

Tempo Temperatura Precipitação Vento Pressão Humidade
00:00 +20°C° 0.1 mm 1 m/s 761 mmHg 69%
01:00 +19°C° 0 mm 1 m/s 761 mmHg 70%
02:00 +17°C° 0 mm 0 m/s 761 mmHg 71%
03:00 +17°C° 0 mm 0 m/s 761 mmHg 72%
04:00 +17°C° 0 mm 0 m/s 761 mmHg 73%
05:00 +19°C° 0 mm 1 m/s 762 mmHg 74%
06:00 +18°C° 0 mm 1 m/s 762 mmHg 75%
07:00 +20°C° 0 mm 1 m/s 762 mmHg 69%
08:00 +22°C° 0 mm 1 m/s 762 mmHg 62%
09:00 +23°C° 0 mm 1 m/s 762 mmHg 56%
10:00 +24°C° 0 mm 2 m/s 762 mmHg 52%
11:00 +26°C° 0 mm 2 m/s 762 mmHg 48%
12:00 +27°C° 0 mm 2 m/s 762 mmHg 44%
13:00 +27°C° 0 mm 3 m/s 762 mmHg 43%
14:00 +28°C° 0 mm 3 m/s 762 mmHg 41%
15:00 +28°C° 0 mm 4 m/s 761 mmHg 40%
16:00 +27°C° 0 mm 4 m/s 762 mmHg 43%
17:00 +26°C° 0 mm 3 m/s 762 mmHg 46%
18:00 +25°C° 0 mm 3 m/s 762 mmHg 50%
19:00 +23°C° 0 mm 4 m/s 763 mmHg 50%
20:00 +22°C° 0 mm 5 m/s 764 mmHg 50%
21:00 +21°C° 0 mm 5 m/s 764 mmHg 50%
22:00 +21°C° 0 mm 5 m/s 764 mmHg 53%
23:00 +20°C° 0 mm 4 m/s 764 mmHg 55%

4 Outubro, Domingo

Tempo Temperatura Precipitação Vento Pressão Humidade
00:00 +19°C° 0 mm 3 m/s 764 mmHg 58%
01:00 +19°C° 0 mm 3 m/s 764 mmHg 60%
02:00 +18°C° 0 mm 2 m/s 764 mmHg 61%
03:00 +18°C° 0 mm 2 m/s 764 mmHg 63%
04:00 +18°C° 0 mm 1 m/s 764 mmHg 63%
05:00 +18°C° 0 mm 1 m/s 764 mmHg 64%
06:00 +18°C° 0 mm 1 m/s 764 mmHg 64%
07:00 +20°C° 0 mm 1 m/s 764 mmHg 57%
08:00 +22°C° 0 mm 1 m/s 764 mmHg 50%
09:00 +23°C° 0 mm 1 m/s 765 mmHg 42%
10:00 +25°C° 0 mm 1 m/s 764 mmHg 39%
11:00 +26°C° 0 mm 1 m/s 764 mmHg 35%
12:00 +27°C° 0 mm 1 m/s 763 mmHg 31%
13:00 +28°C° 0 mm 2 m/s 763 mmHg 31%
14:00 +28°C° 0 mm 2 m/s 763 mmHg 30%
15:00 +29°C° 0 mm 2 m/s 763 mmHg 30%
16:00 +27°C° 0 mm 2 m/s 763 mmHg 32%
17:00 +26°C° 0 mm 2 m/s 763 mmHg 35%
18:00 +25°C° 0 mm 2 m/s 764 mmHg 38%
19:00 +24°C° 0 mm 2 m/s 764 mmHg 42%
20:00 +22°C° 0 mm 3 m/s 764 mmHg 45%
21:00 +21°C° 0 mm 4 m/s 765 mmHg 49%
22:00 +21°C° 0 mm 3 m/s 765 mmHg 55%
23:00 +20°C° 0 mm 3 m/s 765 mmHg 61%

5 Outubro, Segunda-feira

Tempo Temperatura Precipitação Vento Pressão Humidade
00:00 +19°C° 0 mm 2 m/s 765 mmHg 67%
01:00 +19°C° 0 mm 2 m/s 765 mmHg 68%
02:00 +19°C° 0 mm 1 m/s 765 mmHg 69%
03:00 +19°C° 0 mm 1 m/s 764 mmHg 70%
04:00 +18°C° 0 mm 1 m/s 764 mmHg 71%
05:00 +16°C° 0 mm 0 m/s 765 mmHg 72%
06:00 +16°C° 0 mm 0 m/s 765 mmHg 73%
07:00 +18°C° 0 mm 0 m/s 765 mmHg 65%
08:00 +20°C° 0 mm 0 m/s 765 mmHg 57%
09:00 +22°C° 0 mm 0 m/s 764 mmHg 49%
10:00 +25°C° 0 mm 1 m/s 764 mmHg 44%
11:00 +26°C° 0 mm 1 m/s 764 mmHg 39%
12:00 +28°C° 0 mm 2 m/s 764 mmHg 33%
13:00 +28°C° 0 mm 2 m/s 763 mmHg 32%
14:00 +28°C° 0 mm 2 m/s 763 mmHg 31%
15:00 +29°C° 0 mm 2 m/s 763 mmHg 29%
16:00 +28°C° 0 mm 2 m/s 763 mmHg 31%
17:00 +26°C° 0 mm 2 m/s 763 mmHg 33%
18:00 +25°C° 0 mm 2 m/s 763 mmHg 35%
19:00 +24°C° 0 mm 3 m/s 764 mmHg 39%
20:00 +22°C° 0 mm 4 m/s 764 mmHg 43%
21:00 +21°C° 0 mm 5 m/s 765 mmHg 47%
22:00 +20°C° 0 mm 5 m/s 765 mmHg 50%
23:00 +19°C° 0 mm 4 m/s 765 mmHg 53%
Mostrar mais